Voltar ao catálogo

SL-8 DEB

AtivoLEO
NORAD 21332·DEBRIS·🇷🇺 Russia

Lançado Feb 12, 1991 de Plesetsk Cosmodrome

Loading…

Próximas Passagens (próximas 24 horas)

TLE

AtualizadoSource: Space-Track

Época: Sep 14, 2026, 07:28 UTC

1 21332U 91009CP  26257.31119668 -.00000299  00000-0 -27266-2 0  9994
2 21332  74.1972  14.9461 0147268 117.6044 271.9843 12.18433069529477

Acompanhe SL-8 DEB em tempo real com AllMySat

Download on the App Store